Wind_Speed
15 19 26 37 38 30 31 28 24 20 16 20 21 22 21 18 12 9 6 5 6 7 13 17 17 18 24 25 23 23 17 26 26 29 27 29 31 33 33 30 29 25 25 29 31 30 30 34 29
13 18 24 31 38 34 32 27 25 19 19 19 19 18 16 17 17 13 11 6 1 4 9 12 14 13 18 28 32 26 30 26 27 33 30 28 29 31 28 30 35 35 38 34 36 35 36 29 32
14 15 19 29 33 34 32 26 27 20 18 18 17 16 17 14 12 15 13 10 8 5 6 11 15 17 16 17 27 28 23 26 23 22 24 26 30 31 33 35 39 42 40 37 38 37 37 31 28
10 10 17 24 29 32 34 29 28 24 17 18 18 19 20 18 19 20 19 19 16 10 8 8 12 15 15 15 18 20 20 22 24 22 22 28 31 33 34 36 38 39 39 34 32 27 22 18 15
8 9 12 14 26 31 30 29 31 27 22 18 18 20 21 23 23 21 22 22 21 15 5 4 7 8 10 11 10 10 10 11 11 12 15 16 20 22 25 27 28 29 29 26 23 20 19 13 10
8 10 9 13 22 27 26 29 30 28 25 21 20 22 22 25 25 22 27 27 26 24 17 4 5 5 4 6 4 2 2 3 3 6 10 14 17 18 19 21 24 26 26 25 22 18 14 11 9
4 5 3 9 19 24 26 26 28 33 27 24 23 23 21 27 27 23 24 27 29 28 22 15 10 8 7 6 6 7 5 3 1 5 4 4 6 5 5 4 4 8 14 15 14 17 16 13 12
6 2 2 8 16 22 26 27 29 32 31 26 25 24 23 26 27 26 25 29 29 26 25 19 16 13 12 10 8 6 9 19 16 16 17 17 18 18 19 17 16 17 12 5 8 16 21 19 16
3 4 0 7 11 19 24 26 27 29 31 28 25 25 24 24 27 28 28 28 27 28 25 22 19 15 12 13 15 16 21 20 14 17 19 20 20 24 23 26 30 29 23 15 10 11 15 17 16
12 6 3 6 7 18 22 22 23 26 29 28 26 23 25 26 26 29 32 27 28 29 28 27 24 24 22 20 17 17 18 18 17 15 15 15 17 19 21 22 24 23 26 27 25 18 13 14 15
18 13 10 3 12 12 15 19 18 22 27 28 25 21 21 24 27 30 30 27 28 30 27 26 29 25 23 22 17 17 10 15 17 17 15 12 17 21 21 21 23 22 25 26 28 27 25 22 20
15 10 8 7 9 7 8 13 15 19 23 26 26 27 24 23 26 32 34 32 32 28 30 24 26 30 30 27 20 14 13 17 17 13 15 15 13 17 19 21 20 20 20 21 24 23 22 22 21
22 16 9 15 12 4 6 11 12 17 20 24 26 27 26 31 32 33 39 37 32 33 33 29 27 24 21 23 19 17 17 18 20 20 17 17 11 9 12 14 15 17 17 17 20 22 21 18 16
28 19 12 13 23 9 4 5 9 13 17 20 24 27 29 32 36 36 41 45 42 40 39 34 30 23 26 30 27 26 27 23 24 26 24 24 19 19 21 18 15 10 11 14 14 15 16 15 18
35 25 16 10 17 26 11 3 4 10 13 16 20 23 26 28 34 36 39 43 47 47 46 41 37 36 31 34 32 29 27 25 27 30 28 27 27 24 21 21 24 19 14 12 15 13 12 13 17
39 26 17 13 16 20 9 6 2 3 9 16 18 21 23 26 29 34 39 44 44 46 48 47 47 44 42 41 41 41 43 37 38 34 34 33 33 32 31 30 27 20 14 14 14 13 14 13 11
42 34 30 19 29 21 18 9 5 6 7 12 17 19 19 25 27 29 34 40 40 39 42 43 46 44 43 42 42 43 44 43 43 42 41 39 39 37 40 40 40 31 21 17 15 17 19 15 14
49 43 38 27 29 30 28 19 13 10 11 13 12 14 17 16 22 24 26 34 34 33 35 39 43 44 42 42 42 44 43 45 47 46 44 44 44 38 41 47 54 54 51 44 37 32 29 27 32
56 53 51 39 41 31 33 27 19 15 12 15 14 15 15 15 16 22 23 26 29 30 33 38 40 40 41 43 44 45 42 43 43 46 49 46 43 40 42 43 50 55 56 55 51 53 48 43 46
61 54 60 48 33 37 39 32 25 19 16 16 18 15 14 14 14 17 23 23 26 24 29 33 33 38 39 40 43 44 48 47 49 52 49 47 41 42 42 40 40 39 42 42 41 42 40 43 40
66 62 60 60 47 40 41 34 27 25 17 19 17 17 12 13 12 15 17 20 22 24 24 28 31 32 33 38 40 41 43 44 44 43 42 41 44 41 38 34 34 34 33 33 32 35 41 43 39
70 65 60 61 55 48 44 39 31 30 23 20 20 16 14 14 11 11 14 16 18 21 22 23 27 29 30 31 33 37 37 40 42 44 43 40 38 37 39 38 34 30 29 30 30 31 32 33 33
75 69 69 56 56 53 50 45 40 34 27 27 24 20 14 15 13 5 9 14 14 17 19 20 18 16 18 25 25 28 29 30 34 35 36 38 38 40 39 38 36 35 34 34 34 35 31 22 28
77 73 73 71 62 60 60 51 45 41 36 30 28 25 20 16 12 7 2 6 8 12 11 11 11 12 13 16 20 20 22 22 26 28 30 32 32 36 39 39 36 34 33 34 36 35 33 31 32
81 78 72 64 65 61 62 58 54 48 42 37 34 30 26 20 15 8 6 7 9 8 9 10 8 10 12 9 11 13 14 14 16 19 21 22 26 25 31 34 36 37 35 31 32 31 30 29 31
85 85 81 78 70 64 62 60 59 54 49 42 41 39 31 30 23 18 14 13 8 9 8 7 8 8 8 7 9 8 9 9 9 10 11 12 15 21 19 25 30 31 34 34 33 36 33 29 26
84 89 88 87 82 70 70 65 60 60 52 46 43 43 36 33 28 25 22 18 15 12 8 9 9 5 6 7 8 7 3 4 2 3 8 11 6 10 14 16 18 22 26 29 29 31 32 33 33
79 90 92 89 81 74 73 70 66 62 55 47 48 47 44 37 32 32 28 23 20 16 15 12 9 6 4 3 5 9 4 1 1 3 3 8 9 8 9 8 12 13 14 18 21 23 26 28 27
81 85 92 91 80 77 76 75 73 65 58 52 51 51 47 43 41 35 34 27 25 21 19 16 15 9 12 9 7 6 7 7 5 3 3 4 5 5 7 5 2 4 8 10 11 13 16 18 19
87 84 90 93 82 76 69 75 72 67 62 57 55 53 51 47 41 38 36 33 32 29 25 22 20 19 14 17 18 12 11 8 7 5 3 2 3 2 2 4 3 3 5 3 4 7 7 10 11
Wind_Direction
52 35 34 39 34 33 33 31 28 42 49 51 50 65 70 73 67 80 90 106 134 174 190 197 211 210 206 201 214 219 231 228 226 226 235 246 259 266 265 269 272 276 272 273 272 269 275 275 277
48 51 37 34 30 34 37 31 27 46 52 52 51 56 68 62 53 54 32 30 45 205 212 209 210 207 207 215 213 218 228 238 251 243 241 256 262 258 266 267 266 271 273 267 266 266 271 264 262
56 56 33 36 28 34 40 36 28 48 54 55 58 53 59 51 52 29 23 8 348 301 256 227 210 210 209 216 217 225 228 236 248 249 246 266 276 276 276 276 266 271 276 271 263 261 269 272 274
80 47 23 35 26 35 42 40 34 44 53 52 52 55 48 39 37 33 33 20 5 331 289 246 226 218 217 214 218 229 246 251 256 265 267 267 267 270 272 272 265 266 270 267 263 260 256 254 259
96 30 5 21 30 33 41 42 40 42 48 43 42 49 40 40 38 37 30 35 32 29 9 247 226 219 218 219 230 243 257 262 264 268 268 271 269 269 272 273 271 266 264 263 258 253 243 237 232
94 38 5 25 35 38 41 40 43 44 46 47 47 50 44 45 45 41 38 40 40 41 46 75 193 198 193 201 196 220 204 240 277 292 293 287 279 278 275 271 268 266 261 257 252 240 221 207 209
126 9 29 9 42 43 40 43 36 41 44 48 45 55 49 47 49 45 40 39 37 42 50 64 96 132 135 139 142 112 69 32 72 115 96 85 82 68 28 360 342 281 267 259 244 220 205 183 180
161 107 360 4 51 53 42 35 36 36 39 39 45 53 53 45 45 43 40 37 40 45 49 62 83 95 113 122 109 107 94 104 108 94 83 77 67 63 50 61 68 79 92 143 199 194 188 178 168
173 161 135 360 52 57 49 34 34 33 38 34 34 42 48 46 42 40 40 41 44 45 51 70 79 91 91 91 92 97 112 111 88 85 77 74 76 56 62 68 72 72 78 89 117 162 190 177 173
199 110 295 306 69 56 56 48 37 34 39 36 36 37 38 42 41 38 36 48 52 51 56 70 79 89 84 88 92 108 106 87 75 83 68 75 78 66 56 75 62 68 70 79 85 103 139 163 169
192 184 186 247 108 63 53 51 46 38 41 39 41 37 33 41 41 43 43 54 57 58 61 76 79 90 87 86 85 114 106 72 70 62 59 59 54 72 67 65 70 81 80 79 88 93 99 110 119
182 191 180 173 134 43 50 53 49 48 45 43 44 48 37 47 52 58 56 58 61 62 63 78 90 95 85 75 74 87 63 57 54 63 55 54 57 68 57 57 65 76 90 91 97 100 103 101 95
175 162 162 179 186 275 103 65 38 55 47 51 53 54 51 71 73 67 65 64 69 68 70 72 97 91 72 70 80 83 65 58 51 55 55 50 46 33 25 52 60 57 75 93 104 107 107 105 104
171 155 170 211 229 204 137 76 39 58 56 55 65 67 71 77 76 75 71 71 71 72 78 78 87 89 84 81 80 76 76 75 70 62 73 62 56 64 59 64 61 73 85 92 102 100 112 113 116
178 178 194 194 187 215 203 141 66 56 62 61 65 70 70 73 76 77 76 74 73 75 78 80 84 85 88 78 76 74 76 74 68 65 70 65 62 70 72 76 62 65 87 117 119 115 111 99 87
195 176 203 189 190 192 186 191 144 100 75 83 70 73 78 76 78 78 80 78 78 78 78 79 82 84 81 77 76 74 70 74 70 70 67 66 66 71 69 63 56 55 68 94 109 123 109 98 93
195 175 188 187 205 194 188 200 208 149 102 99 89 80 81 86 85 82 80 80 81 79 78 81 80 80 81 80 77 74 73 70 68 71 68 67 66 72 70 69 63 61 69 93 100 98 92 77 67
201 175 182 186 197 205 218 212 181 180 156 129 109 89 84 89 91 92 83 84 83 82 78 80 80 76 76 77 77 76 73 72 69 70 70 67 71 74 75 70 70 67 72 82 85 90 90 85 88
201 189 187 190 192 206 204 215 188 200 178 153 135 114 100 92 91 95 92 94 89 83 87 88 82 78 77 74 73 73 75 75 71 68 71 81 83 77 80 79 79 80 78 79 88 91 81 95 87
201 195 195 188 190 211 206 208 212 198 179 170 134 114 92 91 96 105 101 103 96 90 97 92 87 85 79 77 73 74 74 72 70 67 68 74 84 81 82 77 77 77 73 76 77 77 87 92 91
201 196 200 203 203 205 207 210 208 200 177 176 159 132 117 92 99 111 113 115 105 100 102 98 96 94 88 86 81 75 73 72 69 66 62 63 75 80 82 84 82 81 78 75 78 78 91 97 94
204 199 196 209 204 207 207 204 205 201 189 188 182 158 144 134 99 122 114 121 116 109 114 110 101 98 95 90 87 84 79 75 69 68 66 63 67 71 74 77 83 87 86 79 76 90 93 97 89
203 201 200 197 196 207 204 207 210 197 197 198 194 183 166 149 138 116 132 119 128 128 127 130 122 111 100 93 88 91 84 79 69 63 69 67 66 67 67 73 75 75 78 78 80 84 93 92 75
205 204 204 210 211 209 211 202 202 195 204 205 203 193 194 181 155 156 158 152 138 142 145 145 139 124 119 110 106 93 92 85 76 76 76 73 64 67 69 67 72 71 70 70 73 75 72 66 65
207 206 202 198 194 201 209 200 200 205 209 212 203 201 210 191 186 187 192 182 151 155 131 133 149 118 128 107 104 111 108 103 82 72 69 71 71 67 73 69 68 71 69 66 67 72 73 69 65
207 207 201 201 192 194 199 200 204 210 213 212 205 204 212 208 196 195 200 205 177 162 150 133 121 129 124 126 127 112 94 126 103 92 67 53 58 73 73 72 75 74 73 68 64 67 68 69 68
208 208 204 208 207 208 203 205 210 211 213 211 210 205 210 217 195 200 201 209 207 208 185 159 153 143 153 153 149 160 155 99 103 86 58 37 44 62 79 81 72 74 74 75 71 66 65 64 63
211 206 208 209 208 210 212 209 209 209 214 216 215 207 210 217 203 213 205 212 208 213 220 209 199 215 209 201 184 179 200 225 9 21 42 29 45 64 77 87 86 68 64 69 69 67 65 67 69
212 208 210 208 207 210 212 213 212 211 212 215 219 217 214 215 221 217 211 214 219 216 226 225 231 249 260 256 248 238 210 217 239 273 303 327 7 68 39 52 69 58 44 51 63 63 58 60 60
212 211 209 208 205 207 209 215 214 213 212 212 217 216 210 210 216 227 225 221 222 222 228 233 227 249 256 257 255 251 260 257 241 222 227 293 291 315 14 39 352 360 342 357 14 20 26 35 39
Height
10975 10972 10969 10963 10959 10953 10947 10943 10941 10937 10934 10930 10927 10923 10922 10922 10921 10920 10920 10919 10919 10919 10921 10922 10923 10925 10926 10928 10930 10931 10932 10933 10934 10934 10934 10935 10936 10936 10936 10935 10935 10934 10934 10934 10935 10935 10935 10935 10936
10977 10974 10969 10965 10960 10957 10949 10945 10944 10941 10937 10933 10931 10928 10926 10924 10923 10922 10921 10920 10919 10918 10918 10919 10919 10921 10922 10925 10925 10928 10929 10930 10931 10932 10932 10932 10931 10931 10930 10930 10929 10929 10928 10927 10928 10929 10930 10930 10932
10979 10976 10972 10968 10964 10960 10953 10949 10949 10945 10941 10939 10935 10932 10929 10927 10926 10923 10921 10919 10916 10915 10914 10914 10915 10918 10919 10921 10923 10927 10927 10928 10927 10927 10928 10927 10926 10926 10925 10923 10922 10921 10920 10920 10920 10922 10922 10923 10926
10980 10978 10974 10971 10967 10961 10956 10954 10952 10948 10945 10942 10939 10936 10932 10929 10926 10922 10920 10917 10912 10909 10908 10909 10910 10913 10916 10919 10921 10922 10923 10923 10924 10924 10924 10922 10920 10919 10916 10914 10913 10912 10911 10912 10912 10913 10915 10918 10920
10980 10979 10977 10976 10970 10964 10959 10957 10955 10952 10947 10943 10941 10938 10935 10931 10926 10924 10922 10916 10911 10907 10904 10905 10906 10908 10911 10914 10917 10918 10919 10920 10920 10919 10918 10916 10914 10912 10909 10907 10905 10905 10905 10906 10907 10908 10911 10913 10915
10981 10980 10979 10977 10975 10970 10965 10961 10959 10957 10952 10948 10945 10940 10937 10933 10928 10927 10923 10918 10914 10908 10904 10903 10904 10906 10909 10913 10915 10917 10918 10918 10918 10916 10914 10912 10909 10907 10904 10901 10898 10896 10897 10898 10901 10904 10907 10909 10912
10981 10981 10979 10978 10976 10972 10970 10966 10964 10958 10957 10953 10948 10943 10940 10937 10932 10930 10927 10921 10916 10911 10908 10905 10906 10908 10910 10913 10915 10917 10919 10918 10916 10913 10911 10910 10907 10904 10901 10897 10894 10891 10892 10894 10897 10900 10903 10906 10910
10981 10982 10981 10979 10977 10974 10972 10969 10964 10959 10958 10955 10951 10946 10943 10939 10936 10933 10928 10923 10919 10915 10911 10909 10909 10910 10913 10915 10917 10919 10919 10918 10915 10914 10912 10910 10908 10904 10900 10896 10892 10890 10890 10892 10894 10898 10901 10905 10909
10981 10982 10981 10979 10977 10974 10971 10970 10967 10961 10959 10956 10952 10948 10947 10944 10940 10935 10931 10925 10921 10918 10915 10913 10913 10912 10915 10916 10919 10920 10919 10917 10916 10916 10913 10910 10909 10907 10904 10902 10898 10895 10892 10893 10894 10899 10904 10907 10910
10980 10980 10981 10982 10979 10977 10974 10972 10972 10968 10962 10961 10954 10952 10949 10946 10944 10939 10933 10929 10926 10922 10919 10916 10916 10917 10918 10919 10920 10920 10920 10921 10919 10917 10914 10914 10913 10910 10908 10906 10903 10901 10900 10898 10897 10903 10904 10908 10913
10979 10979 10980 10983 10981 10980 10978 10974 10975 10973 10969 10964 10961 10959 10955 10951 10949 10945 10938 10934 10930 10927 10924 10922 10921 10920 10922 10923 10923 10923 10923 10923 10922 10920 10918 10917 10918 10915 10912 10911 10909 10907 10906 10905 10903 10906 10909 10913 10917
10976 10978 10980 10984 10984 10982 10981 10979 10978 10977 10975 10970 10966 10963 10963 10959 10955 10949 10943 10940 10935 10933 10930 10928 10927 10927 10928 10927 10926 10926 10925 10925 10925 10923 10922 10921 10919 10918 10917 10915 10914 10912 10912 10912 10910 10912 10915 10919 10922
10974 10978 10980 10983 10984 10985 10983 10981 10981 10979 10978 10976 10971 10968 10967 10965 10960 10954 10949 10946 10942 10940 10936 10934 10934 10933 10931 10932 10929 10930 10930 10929 10928 10927 10925 10925 10923 10921 10918 10917 10916 10916 10916 10917 10917 10917 10919 10922 10925
10972 10976 10979 10981 10982 10983 10983 10982 10982 10982 10981 10981 10978 10976 10973 10971 10964 10961 10959 10955 10949 10946 10944 10943 10941 10939 10938 10939 10936 10938 10936 10935 10934 10930 10928 10927 10924 10921 10919 10918 10917 10917 10919 10920 10922 10922 10924 10926 10928
10966 10972 10976 10978 10978 10982 10984 10984 10983 10984 10984 10983 10982 10981 10977 10976 10972 10968 10965 10961 10956 10953 10951 10950 10948 10947 10947 10947 10946 10945 10943 10940 10937 10935 10933 10930 10928 10925 10922 10923 10922 10921 10920 10921 10923 10926 10928 10930 10931
10962 10968 10975 10976 10978 10982 10983 10986 10986 10986 10987 10986 10984 10984 10983 10980 10980 10976 10972 10967 10964 10963 10961 10961 10958 10955 10955 10955 10954 10951 10947 10944 10942 10941 10938 10935 10932 10929 10928 10927 10924 10922 10922 10922 10924 10928 10931 10933 10936
10957 10962 10968 10973 10976 10977 10981 10984 10986 10987 10988 10987 10987 10987 10986 10985 10985 10983 10979 10974 10973 10972 10970 10969 10966 10965 10964 10964 10961 10957 10954 10951 10948 10945 10943 10940 10935 10935 10935 10933 10930 10925 10920 10920 10925 10930 10934 10937 10940
10949 10955 10961 10967 10973 10972 10978 10983 10986 10987 10987 10987 10988 10988 10989 10989 10988 10987 10984 10982 10982 10981 10978 10977 10974 10974 10973 10970 10968 10964 10962 10959 10956 10952 10949 10947 10944 10943 10942 10940 10937 10934 10929 10928 10930 10935 10938 10944 10947
10939 10946 10952 10960 10964 10965 10974 10980 10984 10987 10987 10987 10989 10991 10992 10994 10991 10990 10987 10989 10989 10987 10986 10984 10982 10983 10981 10978 10976 10971 10971 10968 10967 10963 10959 10957 10953 10953 10951 10950 10949 10948 10948 10943 10944 10948 10951 10952 10956
10928 10938 10945 10951 10957 10963 10971 10975 10982 10986 10986 10987 10989 10990 10992 10993 10994 10993 10991 10994 10993 10993 10994 10990 10988 10988 10989 10985 10982 10981 10978 10978 10977 10972 10971 10969 10965 10961 10960 10959 10958 10958 10956 10955 10955 10958 10960 10962 10962
10919 10930 10935 10943 10951 10958 10965 10970 10979 10983 10984 10986 10988 10990 10992 10994 10995 10996 10995 10995 10996 10996 10998 10997 10995 10993 10995 10993 10991 10989 10987 10987 10984 10981 10980 10978 10975 10971 10968 10967 10966 10964 10963 10963 10964 10965 10969 10968 10968
10909 10920 10931 10937 10944 10952 10960 10966 10974 10979 10982 10985 10988 10990 10993 10994 10996 10998 10998 10997 10996 10998 11000 11001 11001 10999 11000 11001 10999 10998 10998 10996 10993 10990 10988 10985 10982 10980 10977 10975 10972 10971 10969 10969 10971 10973 10975 10975 10973
10896 10910 10919 10926 10937 10944 10950 10961 10969 10976 10979 10982 10986 10988 10993 10994 10996 10999 11000 10999 10999 11000 11001 11003 11003 11004 11004 11004 11004 11004 11003 11001 11000 10998 10996 10995 10992 10990 10989 10984 10983 10979 10977 10976 10977 10979 10979 10979 10978
10891 10900 10910 10918 10926 10934 10943 10953 10961 10968 10971 10978 10984 10987 10991 10993 10996 10999 11001 11001 11002 11003 11003 11004 11004 11005 11006 11007 11007 11007 11007 11006 11005 11005 11004 11001 11000 10998 10996 10994 10992 10991 10986 10985 10984 10983 10982 10981 10980
10878 10888 10901 10909 10916 10925 10936 10946 10954 10961 10966 10974 10979 10983 10987 10992 10995 10999 11001 11003 11004 11004 11006 11005 11004 11005 11006 11008 11008 11008 11007 11008 11009 11008 11008 11008 11007 11006 11004 11002 11001 10998 10996 10993 10991 10989 10987 10985 10984
10857 10871 10887 10897 10905 10917 10926 10937 10945 10952 10959 10967 10971 10977 10983 10988 10991 10996 10999 11002 11004 11005 11006 11007 11007 11007 11007 11008 11008 11008 11008 11009 11010 11011 11010 11011 11012 11011 11010 11007 11007 11006 11003 11000 10998 10995 10993 10991 10989
10835 10854 10870 10879 10893 10905 10916 10926 10932 10941 10949 10959 10966 10972 10978 10982 10987 10991 10996 10999 11002 11004 11006 11006 11007 11007 11008 11008 11009 11008 11009 11010 11011 11012 11013 11013 11013 11014 11012 11010 11010 11011 11008 11006 11004 11002 11000 10997 10996
10833 10847 10856 10867 10887 10896 10904 10914 10922 10934 10944 10955 10961 10968 10972 10976 10982 10987 10991 10995 10999 11001 11004 11006 11007 11007 11008 11009 11009 11009 11009 11010 11010 11011 11013 11014 11014 11014 11015 11014 11012 11013 11012 11010 11008 11008 11007 11005 11004
10816 10829 10839 10856 10875 10883 10892 10904 10914 10926 10937 10947 10953 10959 10965 10972 10977 10981 10987 10991 10994 10998 11001 11004 11005 11007 11008 11008 11010 11010 11009 11009 11009 11009 11011 11014 11014 11015 11015 11015 11016 11014 11014 11012 11012 11011 11010 11009 11007
10799 10816 10831 10848 10864 10878 10887 10896 10907 10919 10926 10937 10945 10952 10957 10963 10971 10974 10979 10984 10989 10992 10996 10998 11001 11003 11005 11006 11008 11009 11008 11008 11009 11009 11010 11012 11014 11015 11016 11016 11016 11015 11015 11015 11013 11013 11012 11011 11009